Weather observations for the past three days for
Point Thomson Airstrip
Imperial (Metric)
Date Time (akdt) Wind (mph) Vis. (mi.) Weather Sky Cond. Temperature (ºF) Relative Humidity Wind Chill (°F) Heat Index (°F) Pressure Precipitation (in)
Air Dwpt 6 hour altimeter (in) sea level (mb) 1 hr 3 hr 6 hr
Max. Min.
02 14:15 E 8 7.00 Overcast BKN007 BKN045 OVC100 26.1 23.7 91% 18 29.57 0.0
02 13:55 E 7 7.00 Overcast OVC007 25.7 23.5 92% 19 29.57 0.0
02 13:35 E 8 7.00 Overcast OVC007 25.7 23.2 90% 18 29.56 0.0
02 13:15 E 9 7.00 Overcast OVC007 25.5 23 90% 17 29.56 0.0
02 12:55 E 8 7.00 Overcast OVC007 25.3 22.8 90% 17 29.55 0.0
02 12:35 E 9 7.00 Overcast OVC007 25.2 22.8 91% 17 29.55 0.0
02 12:15 E 8 7.00 Overcast OVC007 25 22.6 91% 17 29.54 0.0
02 11:55 E 8 7.00 Overcast OVC007 25.2 22.6 90% 17 29.54 0.0
02 11:35 E 10 7.00 Overcast OVC007 24.4 22.1 91% 15 29.53 0.0
02 11:15 E 13 7.00 Overcast OVC007 24.3 22.1 91% 14 29.52 0.0
02 10:55 E 13 7.00 Overcast OVC007 23.9 21.9 92% 13 29.51 0.0
02 10:35 E 13 7.00 Overcast OVC007 23.7 21.9 93% 13 29.51 0.0
02 10:15 E 12 7.00 Overcast OVC007 23.7 21.7 92% 13 29.5 0.0
02 09:55 E 13 7.00 Overcast OVC007 23 21.6 23 21 94% 12 29.5 0.0
02 09:35 E 13 7.00 Overcast OVC007 22.8 21.2 93% 12 29.5 0.0
02 09:15 E 13 7.00 Overcast OVC005 22.5 21 94% 11 29.5 0.0
02 08:55 E 13 7.00 Overcast OVC005 22.1 21 96% 11 29.5 0.0
02 08:35 E 13 7.00 Overcast OVC005 22.1 20.8 95% 11 29.49 0.0
02 08:15 E 14 7.00 Overcast OVC005 21.9 20.7 95% 10 29.49 0.0
02 07:55 E 15 7.00 Overcast OVC005 21.7 20.3 94% 9 29.48 0.0
02 07:35 E 15 7.00 Overcast OVC005 21.7 20.3 94% 9 29.48 0.0
02 07:15 E 18 7.00 Overcast OVC005 21.7 20.3 94% 8 29.48 0.0
02 06:55 E 18 7.00 Overcast OVC005 21.6 20.3 95% 8 29.48 0.0
02 06:35 E 17 7.00 Overcast OVC005 21.4 20.3 96% 8 29.49 0.0
02 06:15 E 18 5.00 Fog/Mist OVC005 21.2 20.3 96% 7 29.48 0.0
02 05:55 E 20 7.00 Overcast OVC005 21.2 20.3 96% 7 29.49 0.0
02 05:35 E 20 5.00 Fog/Mist OVC005 21.2 20.1 96% 7 29.49 0.0
02 05:15 E 20 7.00 Overcast OVC005 21 19.9 96% 7 29.49 0.0
02 04:55 E 18 5.00 Fog/Mist OVC005 21.2 20.1 96% 7 29.49 0.0
02 04:35 E 18 5.00 Fog/Mist OVC005 21 20.1 96% 7 29.5 0.0
02 04:15 E 21 4.00 Fog/Mist and Breezy OVC005 21.2 20.3 96% 7 29.49 0.0
02 03:55 E 20 3.00 Fog/Mist OVC005 21.2 20.3 21.7 20.3 96% 7 29.5 0.0
02 03:35 E 22 5.00 Fog/Mist and Breezy OVC005 21.2 20.3 96% 6 29.5 0.0
02 03:15 E 22 5.00 Fog/Mist and Breezy OVC005 21.2 20.3 96% 6 29.51 0.0
02 02:55 E 24 4.00 Fog/Mist and Breezy OVC005 21.6 20.3 95% 6 29.51 0.0
02 02:35 E 25 2.00 Fog/Mist and Breezy OVC005 21.7 20.8 96% 6 29.51 0.0
02 02:15 E 23 G 30 1.75 Fog/Mist and Breezy OVC005 21.6 20.5 96% 6 29.51 0.0
02 01:55 E 25 1.75 Fog/Mist and Breezy OVC005 21.6 20.5 96% 6 29.52 0.0
02 01:35 E 23 2.00 Fog/Mist and Breezy OVC005 21.7 20.8 96% 7 29.53 0.0
02 01:15 E 25 1.75 Fog/Mist and Breezy OVC005 21.7 20.8 96% 6 29.53 0.0
02 00:55 E 23 2.00 Fog/Mist and Breezy OVC005 21.7 20.8 96% 7 29.53 0.0
02 00:35 E 24 2.50 Fog/Mist and Breezy OVC005 21.7 20.8 96% 6 29.54 0.0
02 00:15 E 23 2.50 Fog/Mist and Breezy OVC005 21.7 20.8 96% 7 29.54 0.0
01 23:55 E 25 2.00 Fog/Mist and Breezy OVC005 21.6 20.3 95% 6 29.55 0.0
01 23:35 E 24 1.25 Fog/Mist and Breezy OVC005 21.2 20.3 96% 5 29.56 0.0
01 23:15 E 28 G 32 0.75 Fog/Mist and Windy OVC005 21 20.1 96% 4 29.57 0.0
01 22:55 E 28 G 31 1.25 Fog/Mist and Windy OVC005 20.5 19.4 96% 4 29.57 0.0
01 22:35 E 24 G 30 1.50 Fog/Mist and Breezy OVC005 20.3 19.2 96% 4 29.58 0.0
01 22:15 E 28 G 32 1.75 Fog/Mist and Windy OVC005 20.3 19.2 96% 3 29.58 0.0
01 21:55 E 28 G 32 1.75 Fog/Mist and Windy OVC005 20.3 19.2 20.3 18.9 96% 3 29.59 0.0
01 21:35 E 24 1.25 Fog/Mist and Breezy OVC005 20.3 19.2 96% 4 29.59 0.0
01 21:15 E 26 G 32 0.75 Fog/Mist and Windy OVC005 20.1 18.9 95% 3 29.59 0.0
01 20:55 E 28 0.75 Fog/Mist and Windy OVC007 19.9 18.5 94% 3 29.6 0.0
01 20:35 E 25 0.75 Fog/Mist and Breezy OVC007 19.9 18.5 94% 3 29.61 0.0
01 20:15 E 23 1.25 Fog/Mist and Breezy OVC007 19.9 18.5 94% 4 29.62 0.0
01 19:55 E 30 0.75 Fog/Mist and Windy OVC007 19.4 18.1 95% 2 29.62 0.0
01 19:35 E 30 G 33 0.75 Fog/Mist and Windy OVC007 19.6 18.1 94% 2 29.62 0.0
01 19:15 E 24 1.00 Fog/Mist and Breezy OVC007 19.4 18 94% 3 29.63 0.0
01 18:55 E 25 1.00 Fog/Mist and Breezy OVC007 19.4 17.6 93% 3 29.64 0.0
01 18:35 E 25 G 30 1.00 Fog/Mist and Breezy OVC007 19.4 17.6 93% 3 29.65 0.0
01 18:15 E 25 0.75 Fog/Mist and Breezy OVC007 19.2 17.4 93% 3 29.65 0.0
01 17:55 E 26 G 32 0.75 Fog/Mist and Windy OVC007 19.2 17.4 93% 2 29.65 0.0
01 17:35 E 25 1.25 Fog/Mist and Breezy OVC007 19.4 17.2 91% 3 29.66 0.0
01 17:15 E 30 1.00 Fog/Mist and Windy OVC007 19.2 17.1 91% 1 29.68 0.0
01 16:55 E 26 G 32 1.00 Fog/Mist and Windy OVC007 19.2 17.1 91% 2 29.69 0.0
01 16:35 E 30 G 36 0.75 Fog/Mist and Windy OVC007 19 16.7 91% 1 29.69 0.0
01 16:15 E 30 0.75 Fog/Mist and Windy OVC007 19.2 16.9 91% 1 29.7 0.0
01 15:55 E 32 0.50 Freezing Fog and Windy OVC007 19.2 16.7 20.3 15.3 90% 1 29.7 0.0
01 15:35 E 31 0.50 Freezing Fog and Windy OVC007 18.7 16.7 92% 0 29.71 0.0
01 15:15 E 29 G 36 0.50 Freezing Fog and Windy OVC007 19 16.7 91% 1 29.72 0.0
01 14:55 E 32 G 37 1.00 Fog/Mist and Windy OVC007 19 16.5 90% 1 29.72 0.0
01 14:35 E 35 0.75 Fog/Mist and Windy OVC007 18.9 16.3 90% -0 29.73 0.0
01 14:15 E 32 0.75 Fog/Mist and Windy OVC007 19.4 17.2 91% 1 29.73 0.0
01 13:55 E 29 0.75 Fog/Mist and Windy OVC007 19.8 17.4 91% 2 29.74 0.0
01 13:35 E 29 G 36 1.00 Fog/Mist and Windy OVC007 20.1 18 91% 3 29.75 0.0
01 13:15 E 30 G 35 1.25 Fog/Mist and Windy OVC007 20.3 18.1 91% 3 29.75 0.0
01 12:55 E 30 1.25 Fog/Mist and Windy OVC007 20.1 17.6 90% 3 29.75 0.0
01 12:35 E 28 1.50 Fog/Mist and Windy OVC007 19.4 17.2 91% 2 29.77 0.0
01 12:15 E 28 1.50 Fog/Mist and Windy OVC007 19 16.7 91% 2 29.77 0.0
01 11:55 E 26 G 33 1.75 Fog/Mist and Windy BKN007 18.7 16.3 91% 1 29.78 0.0
01 11:35 E 28 G 31 1.50 Fog/Mist and Windy VV007 18.1 15.8 91% 0 29.78 0.0
01 11:15 E 26 2.00 Fog/Mist and Windy CLR 17.4 14.9 90% -0 29.79 0.0
01 10:55 E 24 1.75 Fog/Mist and Breezy SCT007 16.7 14.5 91% -0 29.8 0.0
01 10:35 E 25 G 31 1.75 Fog/Mist and Breezy VV007 16.5 14 90% -1 29.8 0.0
01 10:15 E 25 1.75 Fog/Mist and Breezy SCT003 15.8 13.5 90% -2 29.81 0.0
01 09:55 E 24 1.50 Fog/Mist and Breezy BKN003 15.3 13.1 19.2 13.8 91% -2 29.82 0.0
01 09:35 E 24 1.50 Fog/Mist and Breezy BKN003 BKN007 14.9 12.7 91% -3 29.82 0.0
01 09:15 E 23 1.50 Fog/Mist and Breezy BKN003 BKN007 14.4 12.2 91% -3 29.82 0.0
01 08:55 E 25 1.25 Fog/Mist and Breezy OVC005 14.7 12.7 92% -3 29.82 0.0
01 08:35 E 22 2.00 Fog/Mist and Breezy OVC007 14.4 12.2 91% -3 29.83 0.0
01 08:15 E 20 2.00 Fog/Mist OVC007 14 12 92% -2 29.84 0.0
01 07:55 E 21 1.75 Fog/Mist and Breezy OVC005 14 12 92% -3 29.84 0.0
01 07:35 E 22 0.75 Fog/Mist and Breezy OVC005 14.5 12.7 93% -3 29.84 0.0
01 07:15 E 24 1.50 Fog/Mist and Breezy OVC007 15.8 14 93% -2 29.84 0.0
01 06:55 E 21 2.50 Fog/Mist and Breezy OVC007 16.3 14.7 93% 0 29.85 0.0
01 06:35 E 18 3.00 Fog/Mist OVC007 16 14.4 93% 1 29.86 0.0
01 06:15 E 20 5.00 Fog/Mist OVC007 16.5 14.9 93% 1 29.86 0.0
01 05:55 E 17 4.00 Fog/Mist OVC007 16.7 15.4 95% 2 29.87 0.0
01 05:35 E 18 7.00 Overcast SCT001 OVC009 16.7 15.3 94% 2 29.88 0.0
01 05:15 E 17 4.00 Fog/Mist SCT001 OVC009 16.7 15.4 95% 2 29.88 0.0
01 04:55 E 20 1.75 Fog/Mist SCT001 OVC009 17.6 16.2 94% 2 29.88 0.0
01 04:35 E 20 5.00 Fog/Mist OVC007 18 16.5 94% 3 29.89 0.0
01 04:15 E 18 G 24 4.00 Fog/Mist OVC007 18.7 17.4 95% 4 29.9 0.0
01 03:55 E 18 2.50 Fog/Mist OVC007 19.4 18.1 21.9 19.4 95% 5 29.9 0.0
01 03:35 E 17 3.00 Fog/Mist OVC007 19.4 18.3 96% 5 29.9 0.0
01 03:15 E 15 5.00 Fog/Mist OVC007 19.8 18.5 95% 7 29.91 0.0
01 02:55 E 17 3.00 Fog/Mist OVC007 19.8 18.5 95% 6 29.92 0.0
01 02:35 E 16 1.75 Light Snow OVC007 19.9 18.9 96% 7 29.92 0.0
01 02:15 E 17 3.00 Fog/Mist OVC007 20.3 19.2 96% 7 29.92 0.0
01 01:55 E 18 3.00 Fog/Mist OVC005 20.3 19.4 96% 6 29.92 0.0
01 01:35 E 18 1.25 Fog/Mist OVC003 20.3 19.4 96% 6 29.92 0.0
01 01:15 E 17 2.50 Fog/Mist OVC003 20.7 19.9 97% 7 29.93 0.0
01 00:55 E 15 3.00 Fog/Mist OVC003 20.7 19.9 97% 8 29.93 0.0
01 00:35 E 15 3.00 Fog/Mist OVC005 20.7 19.9 97% 8 29.94 0.0
01 00:15 E 15 7.00 Overcast OVC005 20.8 19.9 96% 8 29.94 0.0
30 23:55 E 13 7.00 Overcast OVC005 20.8 19.9 96% 9 29.94 0.0
30 23:35 E 14 10.00 Overcast OVC005 21 20.1 96% 9 29.94 0.0
30 23:15 E 13 10.00 Overcast OVC005 21.2 20.3 96% 10 29.94 0.0
30 22:55 E 10 10.00 Overcast OVC007 21.2 20.3 96% 11 29.95 0.0
30 22:35 E 10 10.00 Overcast OVC007 21.6 20.3 95% 11 29.95 0.0
30 22:15 E 9 10.00 Overcast OVC007 21.9 20.8 96% 13 29.95 0.0
30 21:55 E 12 10.00 Overcast OVC007 21.9 20.7 23.4 21.9 95% 11 29.95 0.0
30 21:35 E 9 10.00 Overcast OVC007 21.9 20.7 95% 13 29.95 0.0
30 21:15 E 10 10.00 Overcast OVC007 22.1 20.8 95% 12 29.95 0.0
30 20:55 E 9 10.00 Overcast OVC007 22.5 21.2 95% 13 29.96 0.0
30 20:35 E 6 10.00 Overcast OVC007 22.3 20.7 93% 16 29.96 0.0
30 20:15 E 7 10.00 Overcast OVC005 22.1 20.8 95% 14 29.96 0.0
30 19:55 E 8 10.00 Overcast OVC005 22.6 21.2 94% 14 29.96 0.0
30 19:35 NE 6 10.00 Overcast OVC005 22.8 21.6 95% 16 29.96 0.0
30 19:15 E 7 7.00 Overcast BKN005 OVC008 23 21.6 94% 16 29.96 0.0
30 18:55 E 6 10.00 Overcast SCT004 OVC010 23 22.1 96% 17 29.97 0.0
30 18:35 E 7 10.00 Overcast SCT004 OVC010 23 21.9 96% 16 29.97 0.0
30 18:15 E 6 10.00 Overcast OVC004 23.2 21.9 95% 17 29.97 0.0
30 17:55 E 6 10.00 Overcast OVC004 23 21.7 95% 17 29.97 0.0
30 17:35 E 7 10.00 Overcast OVC004 23.4 21.9 94% 16 29.97 0.0
30 17:15 E 6 10.00 Overcast OVC004 23.2 21.9 95% 17 29.97 0.0
30 16:55 E 6 7.00 Overcast OVC004 23 21.7 95% 17 29.97 0.0
30 16:35 E 6 10.00 Overcast OVC004 23.2 21.7 94% 17 29.97 0.0
30 16:15 E 5 10.00 Overcast OVC004 23 21.2 93% 18 29.98 0.0
30 15:55 E 5 10.00 Overcast OVC004 22.8 21.4 22.8 20.3 94% 17 29.98 0.0
30 15:35 E 6 10.00 Overcast OVC004 22.8 21.2 93% 16 29.97 0.0
30 15:15 E 5 10.00 Overcast OVC004 22.8 20.8 92% 17 29.97 0.0
30 14:55 E 3 10.00 Overcast OVC004 22.6 20.8 93% 29.97 0.0
30 14:35 NE 3 10.00 Overcast OVC004 22.8 20.8 92% 29.97 0.0
30 14:15 E 3 10.00 Overcast OVC004 22.6 20.7 92% 29.97 0.0
30 13:55 Calm 10.00 Overcast OVC004 22.6 20.8 93% 29.97 0.0
30 13:35 NE 3 10.00 Overcast OVC004 22.6 20.7 92% 29.97 0.0
30 13:15 Calm 10.00 Overcast OVC004 22.8 20.8 92% 29.97 0.0
30 12:55 Calm 10.00 Overcast OVC004 22.6 20.8 93% 29.96 0.0
30 12:35 Calm 7.00 Overcast OVC004 22.1 20.7 94% 29.96 0.0
30 12:15 Calm 5.00 Fog/Mist OVC004 21.7 20.3 94% 29.95 0.0
30 11:55 Calm 4.00 Fog/Mist OVC004 21.2 20.3 96% 29.95 0.0
30 11:35 Calm 3.00 Fog/Mist OVC004 21.2 20.1 96% 29.95 0.0
30 11:15 E 3 4.00 Fog/Mist OVC004 21 19.9 96% 29.95 0.0
30 10:55 E 3 4.00 Fog/Mist OVC004 20.8 19.8 96% 29.95 0.0
30 10:35 Calm 5.00 Fog/Mist OVC004 20.7 19.4 95% 29.94 0.0
30 10:15 NE 3 4.00 Fog/Mist OVC004 20.3 19.4 96% 29.94 0.0
30 09:55 NE 5 5.00 Fog/Mist OVC004 20.3 19.4 20.3 19.9 96% 15 29.94 0.0
30 09:35 NE 3 4.00 Fog/Mist OVC004 20.3 19.4 96% 29.94 0.0
30 09:15 NE 3 3.00 Fog/Mist OVC004 20.3 19.4 96% 29.94 0.0
30 08:55 NE 3 2.50 Fog/Mist OVC004 20.3 19.4 96% 29.94 0.0
30 08:35 NE 3 2.50 Fog/Mist BKN004 OVC009 20.1 19.4 97% 29.94 0.0
30 08:15 NE 3 3.00 Fog/Mist OVC004 19.9 19 96% 29.94 0.0
30 07:55 NE 3 5.00 Fog/Mist OVC004 19.9 18.9 96% 29.94 0.0
30 07:35 NE 3 10.00 Overcast OVC006 20.1 18.9 95% 29.94 0.0
30 07:15 Calm 10.00 Overcast OVC006 19.9 18.7 95% 29.94 0.0
30 06:55 Calm 10.00 Overcast BKN006 OVC012 20.1 19 96% 29.94 0.0
30 06:35 NE 3 10.00 Overcast SCT006 OVC012 19.9 18.9 96% 29.93 0.0
30 06:15 Calm 10.00 Overcast SCT006 OVC014 20.1 19 96% 29.93 0.0
30 05:55 NE 3 10.00 Overcast OVC014 19.9 18.9 96% 29.93 0.0
30 05:35 NE 3 10.00 Overcast OVC014 20.1 19 96% 29.93 0.0
30 05:15 NE 3 10.00 Overcast OVC016 20.1 19 96% 29.93 0.0
30 04:55 Calm 10.00 Overcast OVC016 20.3 19.2 96% 29.94 0.0
30 04:35 Calm 10.00 Overcast OVC016 20.3 19.2 96% 29.94 0.0
30 04:15 NE 3 10.00 Overcast OVC018 20.3 19.2 96% 29.93 0.0
30 03:55 Calm 10.00 Overcast OVC018 20.3 19.4 23 20.3 96% 29.93 0.0
30 03:35 NE 3 10.00 Overcast OVC020 20.7 19.6 96% 29.93 0.0
30 03:15 NE 3 10.00 Overcast OVC020 20.8 19.9 96% 29.93 0.0
30 02:55 NE 3 5.00 Light Snow OVC020 21 20.1 96% 29.94 0.0
30 02:35 Calm 3.00 Light Snow OVC020 21.2 20.3 96% 29.94 0.0
30 02:15 Calm 3.00 Light Snow OVC020 21.2 20.3 96% 29.94 0.0
30 01:55 NE 3 5.00 Light Snow OVC018 21.6 20.8 97% 29.94 0.0
30 01:35 Calm 10.00 Overcast OVC020 21.7 21 97% 29.94 0.0
30 01:15 NE 3 10.00 Overcast OVC020 21.9 21.2 97% 29.94 0.0
30 00:55 NE 3 10.00 Overcast OVC020 22.1 21.2 96% 29.94 0.0
30 00:35 Calm 10.00 Overcast OVC020 22.1 21.4 97% 29.94 0.0
30 00:15 Calm 10.00 Overcast OVC020 22.3 21.6 97% 29.94 0.0
29 23:55 Calm 10.00 Overcast OVC018 22.5 21.6 96% 29.94 0.0
29 23:35 Calm 10.00 Overcast OVC018 22.5 21.6 96% 29.95 0.0
29 23:15 Calm 10.00 Overcast OVC018 22.6 21.6 96% 29.95 0.0
29 22:55 Calm 10.00 Overcast SCT009 OVC018 22.8 21.6 95% 29.95 0.0
29 22:35 Calm 10.00 Overcast BKN009 OVC018 22.8 21.2 93% 29.95 0.0
29 22:15 Calm 10.00 Overcast OVC018 23 21.2 93% 29.95 0.0
29 21:55 Calm 10.00 Overcast OVC018 23 21.2 23.5 22.3 93% 29.95 0.0
29 21:35 Calm 10.00 Overcast SCT008 OVC018 23 21.2 93% 29.95 0.0
29 21:15 NE 3 10.00 Overcast SCT008 OVC020 23 21.2 93% 29.95 0.0
29 20:55 Calm 10.00 Overcast SCT007 OVC020 23.4 21.4 92% 29.95 0.0
29 20:35 Calm 10.00 Overcast SCT007 OVC020 23.4 21.4 92% 29.96 0.0
29 20:15 Calm 10.00 Overcast SCT007 OVC022 23.4 21.2 91% 29.96 0.0
29 19:55 Calm 10.00 Overcast SCT007 OVC022 23.4 21.4 92% 29.96 0.0
29 19:35 Calm 10.00 Overcast OVC022 23.5 21.4 91% 29.96 0.0
29 19:15 Calm 10.00 Overcast OVC022 23.5 21.6 92% 29.97 0.0
29 18:55 Calm 10.00 Overcast OVC024 23.4 21.4 92% 29.97 0.0
29 18:35 Calm 10.00 Overcast OVC024 23.4 21.6 93% 29.97 0.0
29 18:15 Calm 10.00 Overcast OVC024 23.4 21.7 94% 29.97 0.0
29 17:55 Calm 10.00 Overcast SCT007 OVC026 23 21.6 94% 29.97 0.0
29 17:35 Calm 10.00 Overcast SCT007 OVC026 23.4 21.9 94% 29.97 0.0
29 17:15 Calm 10.00 Overcast SCT007 OVC026 23 21.7 95% 29.98 0.0
29 16:55 Calm 10.00 Overcast OVC026 22.8 21.6 95% 29.98 0.0
29 16:35 Calm 10.00 Overcast OVC026 22.6 21.2 94% 29.99 0.0
29 16:15 Calm 10.00 Overcast SCT007 OVC024 22.6 21.2 94% 29.99 0.0
29 15:55 Calm 10.00 Overcast SCT007 OVC024 22.1 21.2 22.6 21.2 96% 29.99 0.0
29 15:35 Calm 10.00 Overcast OVC024 22.5 21.2 95% 29.98 0.0
29 15:15 Calm 10.00 Overcast OVC026 22.5 21.2 95% 29.98 0.0
29 14:55 Calm 10.00 Overcast SCT007 OVC026 22.1 21.2 96% 29.98 0.0
29 14:35 Calm 10.00 Overcast SCT007 OVC026 21.9 21 96% 29.98 0.0
Date Time (akdt) Wind (mph) Vis. (mi.) Weather Sky Cond. Air Dwpt Max. Min. Relative Humidity Wind Chill (°F) Heat Index (°F) altimeter (in) sea level (mb) 1 hr 3 hr 6 hr
6 hour
Temperature (ºF) Pressure Precipitation (in)